Location: Great Falls
(47.5000°N, 111.3000°W)
Time: 20:29:20
(UTC-06:00)

ISS - Visible Passes

Search period start: 23 March 2019 00:00
Search period end: 02 April 2019 00:00
Orbit: 408 x 411 km, 51.6° (Epoch: 23 March)

Date Brightness Start Highest point End Pass type
(mag) Time Alt. Az. Time Alt. Az. Time Alt. Az.
23 Mar -3.8 21:04:43 10° SW 21:07:59 62° SSE 21:09:16 32° E visible
23 Mar -0.7 22:41:30 10° W 22:42:03 14° W 22:42:03 14° W visible
24 Mar -3.2 20:14:19 10° SW 20:17:25 38° SE 20:20:31 10° ENE visible
24 Mar -3.2 21:50:42 10° W 21:53:51 53° NNW 21:53:51 53° NNW visible
25 Mar -3.6 20:59:57 10° WSW 21:03:15 72° NNW 21:05:30 19° ENE visible
25 Mar -1.1 22:37:01 10° WNW 22:38:18 20° WNW 22:38:18 20° WNW visible
26 Mar -2.8 21:46:12 10° W 21:49:22 40° N 21:49:50 38° NNE visible
27 Mar -3.0 20:55:22 10° W 20:58:35 47° NNW 21:01:17 14° ENE visible
27 Mar -1.4 22:32:24 10° WNW 22:34:03 24° NW 22:34:03 24° NW visible
28 Mar -2.7 21:41:38 10° WNW 21:44:45 38° N 21:45:25 34° NNE visible
29 Mar -2.7 20:50:47 10° WNW 20:53:56 39° N 20:56:45 12° ENE visible
29 Mar -1.8 22:27:38 10° WNW 22:29:31 29° NW 22:29:31 29° NW visible
30 Mar -3.0 21:36:54 10° WNW 21:40:06 44° N 21:40:49 37° NE visible
30 Mar -0.3 23:13:31 10° WNW 23:13:34 10° WNW 23:13:34 10° WNW visible
31 Mar -2.8 20:46:06 10° WNW 20:49:15 39° N 20:52:06 12° ENE visible
31 Mar -2.2 22:22:46 10° WNW 22:24:51 36° WNW 22:24:51 36° WNW visible
01 Apr -3.6 21:32:01 10° WNW 21:35:19 63° NNE 21:36:07 44° E visible
01 Apr -0.5 23:08:50 10° W 23:08:53 10° W 23:08:53 10° W visible
